Wind_Speed
7 5 5 5 3 3 7 7 6 5 4 5 7 10 11 9 10 10 10 9 7 6 5 6 9 11 13 14 15 15 14 13 11 9 9 9 9 9 9 8 7 6 6 5 9 16 20 22 22
7 6 5 3 3 6 7 7 8 7 6 6 7 9 10 9 10 10 10 9 7 6 5 6 8 11 13 14 15 15 14 13 12 10 9 10 9 9 9 8 7 6 5 3 3 11 19 22 23
8 7 6 3 5 5 6 7 8 9 7 7 7 8 9 9 9 10 9 8 7 6 5 6 8 10 12 13 14 15 15 14 12 11 10 10 10 9 8 8 7 6 5 4 2 5 14 19 22
9 8 6 6 7 5 5 6 7 7 7 7 8 8 8 9 9 9 8 8 7 6 5 5 7 9 11 12 14 15 15 14 13 12 11 11 10 9 8 7 6 6 5 3 3 2 8 14 19
10 9 7 7 6 4 4 6 6 7 8 8 8 8 8 8 7 7 7 6 6 5 4 4 6 8 10 12 13 14 15 14 13 13 12 11 10 9 7 6 6 5 4 3 1 2 4 9 15
10 9 7 5 3 2 3 5 7 7 8 9 9 8 8 7 6 6 5 5 5 5 5 4 6 8 10 11 13 13 14 14 13 13 13 12 11 9 7 6 6 6 5 3 2 2 4 7 11
10 9 8 5 2 1 3 6 8 9 10 10 11 10 8 7 5 4 4 5 5 6 6 5 6 8 9 11 12 13 14 13 13 14 14 13 11 10 8 6 6 6 5 4 4 5 6 7 10
11 10 8 5 4 3 3 5 8 9 10 11 11 10 9 8 6 3 3 4 5 6 6 6 7 8 9 10 12 13 13 14 14 14 14 14 12 11 9 7 6 6 6 6 6 7 8 9 10
13 11 8 6 8 6 6 7 7 9 10 10 10 11 10 8 6 4 2 3 5 5 6 6 7 8 9 10 11 12 13 14 15 15 15 14 13 11 10 8 7 7 7 7 7 8 9 11 12
15 13 11 11 11 9 8 8 9 10 11 11 10 9 9 8 7 5 4 4 5 6 7 8 9 9 10 10 11 12 12 13 15 16 15 15 14 13 11 9 8 8 7 7 8 9 10 12 13
18 16 14 12 13 12 12 11 11 12 13 13 13 11 9 8 8 7 7 7 7 8 9 9 10 10 11 11 12 12 13 13 14 16 16 15 15 14 12 10 9 8 8 8 8 9 11 12 13
20 19 18 16 16 15 15 14 13 13 14 15 16 15 12 11 10 9 9 10 10 11 11 12 12 12 12 12 13 13 13 14 15 16 17 16 16 15 13 11 10 9 9 8 8 9 10 12 13
21 21 20 19 18 17 18 17 17 16 16 17 18 18 17 15 14 12 11 11 12 12 12 13 13 13 13 13 14 14 14 14 14 16 17 17 17 16 15 12 11 10 9 8 8 9 10 11 12
23 24 23 22 21 21 21 20 20 19 20 19 19 20 20 19 17 17 15 14 13 13 12 13 14 13 13 14 14 14 14 14 14 15 17 17 18 18 17 14 12 11 10 10 9 9 10 11 12
26 25 25 25 25 25 25 23 22 24 23 22 21 22 22 21 20 20 20 18 16 15 13 13 14 15 15 15 15 15 15 15 15 15 16 17 18 18 18 16 13 12 12 11 10 10 11 11 12
29 29 28 28 29 29 29 27 25 27 27 25 24 25 26 24 23 23 23 21 19 18 16 14 15 16 16 16 16 17 16 15 16 16 17 17 18 18 18 17 15 13 13 12 12 12 12 12 12
32 32 32 31 32 33 34 31 28 30 30 29 27 27 28 28 26 25 24 23 22 20 19 17 16 16 17 17 17 18 17 17 16 17 18 18 18 18 19 18 17 15 14 14 14 13 13 13 13
35 36 35 34 34 35 37 35 31 31 32 32 30 29 29 29 29 28 26 23 23 21 20 19 18 17 17 17 18 19 19 19 17 17 18 19 19 20 20 20 19 16 16 16 16 15 15 15 14
39 39 38 38 40 40 40 37 35 34 35 34 32 30 30 30 29 30 28 25 24 22 21 20 20 19 18 18 19 19 20 19 19 18 19 20 21 21 22 22 21 18 17 17 17 17 17 17 16
41 42 42 43 44 44 44 42 40 37 37 37 36 33 31 31 32 33 29 27 26 23 21 21 21 20 20 19 19 19 20 19 19 20 20 21 22 22 23 24 22 21 19 18 19 19 20 19 18
40 43 44 44 44 45 45 44 41 39 39 37 36 34 32 31 33 33 30 29 27 24 22 21 21 21 21 20 20 20 20 20 20 20 21 21 22 23 24 25 24 23 22 21 20 21 22 22 21
38 39 41 42 43 43 42 44 40 38 36 34 33 33 32 32 33 32 30 28 27 24 22 22 22 22 21 20 20 20 20 20 21 21 22 23 24 25 26 27 27 25 25 24 23 22 23 23 23
36 38 39 39 39 39 37 39 35 34 33 31 30 30 32 32 31 31 29 27 25 23 23 22 21 21 20 20 20 20 20 21 21 22 23 24 25 26 26 27 28 27 26 25 24 24 23 23 23
32 34 35 36 36 36 33 34 31 29 28 28 28 28 29 29 29 30 28 26 24 23 22 21 20 20 20 20 20 21 21 21 22 23 24 25 26 26 26 27 28 28 27 26 25 24 23 24 23
28 28 29 29 28 27 26 26 24 24 26 25 25 26 26 26 26 27 26 25 24 22 22 22 21 21 21 20 20 21 22 22 23 24 24 25 25 26 26 27 28 29 27 26 26 24 24 24 24
26 25 24 25 23 21 20 17 16 18 20 20 21 21 21 22 23 23 23 22 21 20 20 20 20 20 21 21 21 21 22 22 23 24 24 24 24 24 24 26 27 27 26 26 25 24 24 24 23
26 24 23 24 25 24 21 18 16 15 14 15 16 19 20 20 21 21 21 20 19 19 19 20 20 20 20 20 21 22 22 22 23 23 23 23 23 22 22 23 24 25 25 24 24 23 23 23 22
29 25 22 22 23 22 18 17 17 16 12 12 14 16 17 17 18 20 20 20 20 20 20 20 19 19 19 20 21 22 22 23 23 23 23 22 22 21 21 21 21 22 23 23 23 23 22 21 21
27 25 24 25 26 23 20 21 21 19 17 15 14 13 15 18 18 19 20 19 17 18 19 20 20 20 20 21 21 22 22 23 23 23 22 22 21 20 20 19 19 20 20 21 21 21 21 21 20
27 25 23 25 24 24 22 21 23 20 17 15 14 14 16 17 16 17 19 17 17 18 20 20 20 20 21 22 22 22 22 22 21 21 21 21 20 20 19 19 19 19 19 19 20 20 20 21 20
Wind_Direction
140 138 124 105 79 81 45 33 31 16 338 301 279 268 265 272 279 284 290 284 272 273 303 334 349 353 354 354 354 355 356 357 352 346 341 335 328 325 323 325 325 323 311 270 237 216 207 204 202
149 149 138 121 82 59 42 31 24 10 346 316 291 279 277 274 276 282 283 277 265 264 286 321 339 346 350 352 352 353 353 354 352 345 338 331 323 319 320 325 330 339 346 333 237 206 200 200 202
155 156 141 155 98 61 40 32 24 8 351 330 307 295 292 283 280 281 280 275 264 262 277 311 333 343 349 351 352 353 353 352 349 344 336 329 320 314 315 320 331 342 355 9 45 187 193 196 201
154 153 148 131 94 69 42 29 25 8 347 335 326 317 301 293 288 283 280 273 264 263 273 302 332 347 352 354 354 353 353 353 350 344 336 328 320 311 308 313 321 335 347 5 40 159 187 195 199
162 154 156 118 94 69 37 14 6 4 359 349 341 334 320 309 297 287 280 269 257 257 266 295 328 344 352 356 356 354 352 353 351 345 338 329 320 309 303 304 310 319 332 334 4 118 171 194 199
172 167 149 112 104 57 9 356 350 352 354 350 351 348 337 328 312 293 275 257 247 248 257 281 315 335 347 354 356 354 351 349 347 346 340 331 323 311 300 294 298 306 310 301 264 206 185 186 194
178 184 155 159 195 261 344 345 345 343 342 348 350 350 347 345 331 305 272 248 244 245 251 274 307 330 344 351 354 355 351 347 344 344 341 335 327 315 300 290 285 289 293 283 255 226 211 200 200
189 197 187 187 237 258 304 325 332 334 335 337 335 340 354 358 350 325 269 246 242 245 251 274 303 323 337 345 350 351 350 347 342 340 340 337 329 318 304 289 277 276 278 274 257 232 221 214 209
199 207 212 223 252 266 285 302 315 322 325 323 325 335 348 350 348 338 286 246 245 244 257 279 305 317 326 336 345 347 346 344 340 337 336 336 331 322 310 295 277 269 269 266 259 240 226 220 217
207 216 221 230 250 266 279 294 307 314 318 317 317 320 328 331 327 319 299 270 259 257 265 282 302 312 319 327 336 341 339 337 336 334 334 334 332 327 317 298 281 268 265 262 257 245 233 227 224
216 223 235 243 250 263 274 283 294 305 312 314 313 307 302 310 311 300 287 274 269 271 275 281 294 305 314 318 325 330 332 332 333 333 332 334 332 330 321 304 286 271 265 261 254 247 239 235 232
228 232 239 245 252 261 271 278 285 296 306 311 312 309 304 296 293 291 285 277 273 274 279 284 291 300 308 311 317 323 326 328 330 332 331 332 333 332 325 311 292 274 265 260 252 246 241 240 239
238 241 246 251 257 263 269 276 283 291 298 303 306 308 304 297 286 282 282 281 279 279 283 286 292 297 301 306 311 316 318 322 323 328 329 329 330 330 327 317 299 278 265 260 252 245 243 244 244
245 249 255 259 264 267 270 275 282 286 289 294 298 301 302 298 292 285 282 282 283 283 285 289 292 294 298 301 303 306 310 316 318 324 327 326 326 328 326 320 304 283 267 260 254 247 245 246 247
252 256 259 263 267 269 271 274 280 283 286 289 292 296 297 298 296 292 287 286 286 285 287 290 292 293 296 297 299 301 305 311 313 317 321 322 322 324 324 319 309 290 272 262 257 250 246 248 250
255 258 260 262 266 268 270 273 278 281 284 287 289 293 294 294 293 293 291 289 288 288 288 291 291 292 295 295 296 299 301 306 309 310 314 315 315 318 319 314 307 295 278 263 256 252 250 251 252
256 259 260 262 266 269 270 272 272 275 279 283 285 286 287 290 289 287 286 288 288 288 288 289 290 291 293 294 295 298 299 302 304 303 305 308 309 309 312 309 304 295 281 266 256 253 251 251 251
257 260 262 264 264 267 270 271 268 270 275 278 282 282 281 282 285 283 280 282 283 283 284 286 287 289 291 292 294 296 297 298 298 298 297 298 300 302 304 302 300 294 282 269 257 253 251 249 249
261 262 264 266 266 265 267 269 271 272 272 275 276 277 276 275 276 275 276 277 277 278 279 282 285 287 289 291 290 291 292 293 291 289 288 289 290 291 295 295 294 291 284 273 262 255 251 248 248
264 265 265 265 266 269 269 271 272 272 271 272 272 272 273 270 268 268 269 270 271 273 275 279 282 286 289 290 290 290 291 291 289 288 285 283 283 284 287 288 287 285 282 274 265 258 253 248 245
267 267 266 266 267 269 271 272 272 270 269 269 268 268 270 269 266 265 265 264 266 268 271 275 279 284 287 289 289 289 289 290 289 288 287 284 280 283 282 283 281 280 278 275 270 264 255 249 244
269 270 269 268 268 268 271 272 272 271 268 266 265 263 264 264 263 262 261 260 262 264 267 272 278 283 286 288 289 289 289 289 289 288 286 284 281 279 279 277 276 276 277 274 270 270 262 254 247
272 271 270 270 270 271 273 275 275 274 269 265 261 261 261 259 259 260 260 259 260 263 267 271 277 283 286 288 288 288 289 289 290 289 287 285 282 280 278 277 273 273 274 270 269 270 268 262 253
276 275 273 272 273 273 273 275 276 277 276 271 267 265 261 257 256 256 256 256 257 261 266 271 277 283 286 287 287 288 289 289 289 289 287 285 282 279 276 273 271 271 271 269 267 268 269 265 261
283 280 278 275 274 275 273 273 276 274 272 270 267 265 261 256 254 253 253 254 255 259 266 273 277 282 285 287 287 287 287 288 289 288 287 285 282 279 276 272 270 270 269 267 265 267 268 264 260
282 279 276 274 272 270 268 271 267 268 271 272 272 267 263 261 259 256 255 254 256 261 268 273 278 282 285 285 284 285 286 287 288 287 286 285 283 281 278 273 270 269 267 265 264 264 266 265 260
275 274 271 266 264 264 270 280 279 268 267 270 271 269 263 261 259 258 258 257 258 265 271 276 280 282 283 284 286 286 287 287 287 286 286 285 284 282 279 275 271 268 266 264 264 264 266 262 257
269 269 264 259 260 259 255 252 246 251 239 252 260 259 260 259 260 259 256 255 261 269 274 277 281 283 284 285 285 287 288 289 289 288 287 285 284 281 278 274 272 269 266 265 265 264 265 264 260
263 255 249 249 250 252 250 243 239 234 229 221 227 241 253 255 260 258 255 257 259 271 276 281 282 283 284 286 286 289 292 292 292 290 288 286 284 281 278 275 274 271 267 266 265 263 263 263 264
255 254 248 245 246 244 247 248 247 235 228 216 228 243 250 248 252 260 261 256 267 274 278 281 282 284 286 286 287 291 295 295 294 292 290 286 283 280 278 276 274 272 270 267 266 266 265 265 265
Height
5886 5887 5887 5888 5889 5889 5888 5888 5887 5886 5886 5886 5885 5885 5885 5887 5887 5889 5887 5886 5886 5886 5886 5886 5885 5884 5882 5881 5879 5877 5876 5874 5873 5873 5872 5871 5870 5869 5868 5868 5867 5867 5866 5866 5865 5866 5869 5872 5875
5886 5887 5888 5889 5888 5887 5888 5888 5887 5886 5886 5885 5884 5884 5884 5885 5885 5885 5885 5885 5886 5886 5886 5886 5885 5884 5883 5881 5879 5877 5875 5874 5873 5872 5871 5870 5869 5868 5868 5867 5866 5866 5865 5865 5864 5865 5867 5870 5874
5886 5887 5888 5889 5888 5888 5889 5888 5888 5887 5885 5885 5884 5884 5884 5884 5884 5884 5884 5884 5885 5886 5886 5886 5885 5884 5883 5881 5879 5877 5875 5874 5872 5871 5870 5869 5868 5867 5867 5866 5866 5866 5865 5865 5865 5865 5867 5869 5873
5886 5888 5888 5889 5888 5889 5889 5889 5888 5888 5886 5885 5884 5884 5883 5883 5883 5883 5883 5883 5884 5885 5885 5885 5885 5884 5883 5881 5879 5877 5875 5874 5872 5871 5869 5868 5867 5866 5866 5866 5866 5866 5866 5866 5866 5866 5868 5870 5872
5886 5887 5889 5888 5889 5890 5890 5890 5889 5888 5886 5885 5884 5884 5882 5882 5882 5882 5882 5883 5883 5884 5884 5884 5884 5883 5882 5880 5879 5877 5875 5873 5872 5870 5869 5867 5866 5866 5865 5865 5865 5865 5866 5866 5867 5868 5868 5870 5871
5887 5887 5889 5888 5889 5890 5890 5890 5889 5888 5887 5885 5884 5883 5882 5881 5881 5881 5881 5882 5883 5883 5884 5884 5883 5883 5881 5880 5878 5876 5875 5873 5871 5870 5868 5867 5865 5865 5865 5865 5865 5865 5865 5866 5867 5868 5869 5870 5871
5888 5889 5888 5889 5890 5890 5891 5890 5889 5888 5887 5885 5884 5883 5882 5881 5880 5880 5880 5881 5882 5882 5883 5883 5883 5882 5881 5879 5878 5876 5874 5872 5871 5869 5868 5866 5864 5863 5863 5864 5864 5864 5865 5866 5867 5868 5869 5870 5871
5886 5888 5888 5889 5889 5890 5890 5890 5889 5888 5887 5886 5885 5883 5882 5881 5880 5880 5880 5880 5881 5881 5882 5882 5882 5881 5880 5879 5877 5875 5873 5872 5870 5868 5867 5865 5863 5862 5862 5862 5863 5863 5864 5865 5866 5867 5868 5869 5870
5885 5888 5888 5889 5889 5889 5889 5889 5889 5888 5887 5886 5885 5884 5882 5881 5881 5880 5880 5880 5880 5881 5881 5881 5881 5880 5879 5878 5876 5874 5873 5871 5869 5867 5866 5864 5862 5861 5861 5861 5861 5862 5862 5863 5864 5865 5867 5868 5869
5884 5886 5887 5887 5888 5888 5888 5889 5888 5887 5886 5886 5885 5884 5883 5882 5881 5880 5880 5879 5879 5880 5880 5880 5880 5879 5878 5876 5875 5873 5872 5870 5868 5866 5865 5863 5862 5860 5860 5859 5860 5860 5861 5862 5862 5864 5865 5866 5868
5882 5884 5884 5885 5887 5887 5887 5888 5887 5887 5886 5884 5884 5883 5882 5881 5880 5879 5879 5879 5878 5878 5878 5878 5878 5877 5876 5875 5873 5872 5870 5869 5867 5865 5864 5862 5861 5859 5859 5858 5858 5859 5859 5860 5861 5862 5863 5864 5866
5881 5882 5883 5884 5885 5886 5886 5886 5886 5885 5885 5883 5882 5881 5880 5880 5879 5878 5878 5877 5877 5876 5876 5876 5875 5875 5874 5873 5872 5870 5869 5868 5866 5864 5862 5861 5860 5859 5858 5857 5857 5857 5858 5858 5859 5860 5861 5862 5863
5878 5879 5880 5882 5883 5884 5884 5884 5884 5884 5883 5882 5880 5879 5878 5878 5877 5876 5876 5875 5875 5874 5873 5873 5872 5872 5872 5871 5870 5869 5868 5866 5865 5863 5861 5859 5858 5857 5856 5856 5855 5856 5856 5857 5857 5858 5859 5860 5861
5875 5876 5878 5879 5880 5880 5881 5881 5882 5881 5880 5880 5878 5877 5876 5875 5874 5873 5873 5872 5872 5872 5871 5870 5869 5869 5869 5868 5867 5866 5865 5864 5863 5861 5859 5858 5856 5855 5855 5854 5854 5854 5854 5855 5856 5856 5857 5858 5859
5873 5874 5875 5876 5876 5876 5876 5878 5878 5877 5876 5876 5875 5874 5873 5872 5871 5870 5869 5869 5869 5868 5868 5867 5866 5866 5865 5865 5864 5863 5862 5862 5860 5859 5858 5856 5855 5854 5853 5853 5852 5852 5853 5854 5854 5855 5856 5856 5857
5869 5870 5871 5872 5871 5871 5873 5874 5874 5872 5871 5871 5871 5870 5869 5869 5868 5867 5866 5865 5865 5865 5865 5864 5863 5862 5862 5861 5860 5860 5859 5859 5858 5856 5855 5854 5853 5852 5851 5850 5850 5850 5851 5851 5852 5853 5854 5854 5855
5864 5864 5865 5866 5865 5865 5865 5867 5868 5866 5866 5866 5867 5867 5865 5864 5864 5864 5863 5862 5861 5861 5860 5860 5860 5859 5858 5858 5857 5856 5855 5855 5855 5853 5852 5852 5851 5850 5849 5848 5848 5848 5848 5849 5849 5850 5851 5852 5853
5858 5858 5858 5859 5859 5858 5858 5859 5861 5860 5860 5860 5861 5861 5861 5860 5859 5858 5858 5859 5858 5857 5857 5856 5856 5855 5855 5854 5853 5852 5852 5851 5851 5850 5849 5849 5848 5847 5846 5845 5845 5845 5845 5846 5846 5848 5848 5849 5850
5851 5851 5852 5852 5850 5851 5851 5852 5853 5854 5854 5853 5854 5855 5855 5854 5854 5852 5852 5854 5853 5853 5853 5852 5851 5851 5850 5850 5849 5848 5848 5847 5847 5847 5846 5845 5845 5844 5844 5843 5842 5842 5842 5842 5843 5844 5845 5846 5847
5844 5843 5844 5844 5843 5843 5843 5844 5846 5847 5847 5847 5847 5847 5848 5848 5847 5845 5847 5848 5848 5848 5848 5847 5846 5846 5846 5845 5845 5844 5843 5843 5843 5842 5842 5841 5841 5840 5840 5839 5839 5839 5839 5838 5839 5840 5841 5842 5843
5835 5834 5834 5835 5835 5834 5834 5835 5837 5838 5838 5838 5839 5840 5840 5840 5840 5839 5841 5841 5842 5843 5843 5842 5842 5841 5841 5841 5840 5839 5839 5838 5838 5837 5837 5837 5836 5835 5835 5835 5835 5835 5835 5835 5835 5835 5836 5838 5839
5826 5825 5825 5825 5826 5826 5826 5825 5830 5828 5828 5829 5830 5831 5831 5833 5832 5832 5834 5835 5835 5836 5837 5837 5837 5836 5836 5836 5835 5834 5834 5833 5832 5832 5831 5831 5831 5831 5830 5830 5829 5829 5830 5830 5830 5830 5831 5833 5834
5817 5817 5817 5817 5816 5817 5818 5817 5821 5820 5820 5821 5821 5822 5823 5825 5825 5826 5827 5828 5829 5830 5831 5831 5832 5831 5831 5830 5830 5829 5828 5827 5827 5826 5825 5824 5824 5824 5824 5824 5823 5823 5824 5824 5825 5825 5826 5827 5829
5809 5809 5808 5808 5808 5810 5810 5810 5812 5812 5812 5813 5813 5814 5815 5816 5817 5819 5821 5822 5823 5824 5825 5826 5826 5826 5826 5825 5825 5824 5823 5822 5821 5820 5819 5818 5817 5817 5817 5818 5817 5817 5817 5818 5819 5819 5820 5822 5823
5803 5803 5802 5802 5802 5803 5803 5803 5806 5806 5806 5807 5807 5808 5808 5809 5811 5812 5814 5815 5816 5818 5819 5820 5820 5820 5820 5820 5819 5818 5817 5816 5815 5814 5812 5811 5810 5810 5810 5810 5810 5810 5811 5812 5812 5813 5814 5816 5817
5796 5796 5797 5797 5797 5797 5796 5797 5799 5799 5800 5801 5802 5802 5803 5804 5805 5806 5808 5809 5810 5812 5813 5814 5814 5815 5814 5814 5813 5813 5811 5810 5809 5808 5806 5805 5804 5803 5803 5803 5803 5803 5804 5805 5806 5807 5808 5809 5811
5789 5789 5790 5790 5790 5790 5792 5793 5794 5794 5794 5795 5797 5798 5799 5800 5801 5802 5803 5803 5805 5807 5808 5808 5809 5809 5808 5808 5807 5806 5805 5804 5803 5802 5800 5799 5798 5797 5796 5796 5796 5797 5798 5798 5800 5801 5803 5804 5805
5782 5782 5784 5783 5784 5785 5788 5789 5787 5788 5788 5790 5790 5791 5793 5795 5796 5796 5797 5798 5799 5801 5802 5802 5803 5803 5803 5802 5801 5800 5799 5798 5797 5795 5794 5793 5792 5791 5791 5790 5790 5791 5792 5793 5794 5795 5796 5798 5800
5773 5773 5774 5776 5777 5779 5781 5784 5781 5782 5782 5783 5784 5786 5789 5790 5790 5791 5791 5791 5792 5795 5796 5797 5797 5797 5797 5796 5796 5794 5793 5792 5790 5789 5788 5787 5786 5786 5785 5785 5786 5786 5786 5787 5788 5789 5791 5792 5794
5763 5764 5765 5768 5770 5772 5775 5780 5775 5775 5775 5776 5779 5783 5785 5786 5786 5786 5785 5785 5787 5790 5791 5791 5792 5792 5791 5790 5790 5789 5787 5786 5785 5784 5782 5782 5781 5781 5780 5780 5781 5781 5781 5782 5783 5784 5785 5787 5788